GFSNW_sfc_30mbdewp_105.txt.gz
Dewpoint
39 38 38 36 36 39 40 37 28 35 37 31 31 23 19 20 20 22 24 25 25 27 29 27 28 26 29 33 36 34 34 30 23 24 31 31 31 29 33 25 28 30 29 28
38 38 37 35 36 39 38 33 32 35 37 25 21 21 21 21 21 21 23 26 26 29 30 26 26 27 27 33 34 33 35 27 22 28 29 35 33 30 31 31 33 29 26 26
35 38 36 35 35 38 38 35 27 31 32 30 25 21 22 21 22 19 21 21 23 25 29 27 23 23 27 32 33 36 36 31 29 25 29 31 30 32 35 34 29 30 30 30
35 37 36 35 35 39 39 33 29 26 26 28 22 21 21 21 19 16 19 19 19 21 27 20 21 23 27 32 34 34 34 28 31 33 34 32 33 33 34 31 33 30 30 30
36 37 36 35 35 38 37 24 31 25 20 21 19 21 21 17 15 14 18 17 19 21 21 21 21 23 29 32 35 33 34 29 31 32 32 32 30 30 27 31 34 33 32 30
35 36 35 35 36 37 34 30 30 27 27 21 18 16 13 12 14 16 16 16 20 20 23 24 25 27 30 33 32 29 31 31 29 26 25 27 27 28 28 29 30 30 28 31
36 36 35 36 35 37 38 34 30 27 25 24 14 13 13 14 14 15 17 19 22 24 26 28 29 31 33 33 28 29 22 25 27 14 22 21 27 31 32 29 29 30 31 31
35 35 37 36 36 37 37 39 34 32 25 24 20 15 19 21 20 16 18 23 24 26 28 26 24 25 25 24 25 23 24 26 24 23 24 28 26 25 27 29 27 30 29 31
35 35 37 38 37 38 38 39 38 32 28 26 28 19 22 20 21 21 23 25 25 28 26 26 24 20 19 25 27 23 26 29 27 21 21 19 23 26 28 29 21 32 29 28
36 36 37 38 37 39 38 39 39 34 27 28 28 25 25 24 22 22 25 26 27 28 27 24 23 24 22 22 22 23 23 26 23 24 24 23 27 28 28 22 22 32 31 28
36 38 37 36 36 38 39 40 40 36 30 30 33 33 30 29 26 25 26 25 26 26 25 23 22 24 24 25 27 24 24 25 22 23 20 17 28 26 23 28 31 32 32 31
36 38 38 35 34 38 38 37 41 39 33 31 36 34 33 32 30 30 29 28 29 30 24 25 25 23 26 25 23 27 25 26 24 25 23 30 30 30 32 33 31 32 33 30
38 38 38 38 35 37 38 39 39 36 32 30 32 29 32 34 33 35 30 33 33 29 31 29 28 25 26 25 28 29 30 31 26 27 28 29 30 32 33 33 32 29 28 30
38 38 38 37 35 36 36 36 38 37 33 27 29 31 28 31 32 34 34 33 34 31 30 27 27 22 28 26 29 27 28 29 28 27 28 28 29 30 31 28 26 26 24 23
37 38 38 37 36 36 35 35 39 39 35 28 27 29 28 30 32 31 31 32 31 30 27 25 26 27 28 29 30 26 28 27 26 24 30 28 28 30 28 25 23 22 22 21
37 38 38 37 37 36 35 31 37 40 39 31 24 31 31 32 30 30 30 31 30 29 27 25 26 28 28 26 25 29 31 31 33 28 31 30 30 31 28 21 20 20 20 21
37 37 38 37 36 37 35 33 37 41 40 32 26 26 34 30 30 30 30 30 32 29 27 26 26 26 29 27 25 30 29 31 31 32 30 29 31 25 22 21 21 20 19 20
37 37 36 36 36 36 32 37 41 40 36 34 25 25 31 30 28 28 31 29 30 30 27 27 25 27 28 27 27 26 25 26 27 26 25 24 23 21 21 21 20 19 19 19
37 37 37 36 34 30 32 40 41 39 36 28 26 21 24 35 31 31 30 32 27 30 26 26 27 25 25 27 26 24 24 24 23 24 23 22 21 20 20 21 20 19 19 18
37 35 31 26 32 37 39 37 34 33 33 33 27 29 26 32 31 29 27 28 25 26 28 29 24 25 26 27 26 25 24 23 25 24 25 24 20 19 19 19 19 20 19 16
33 30 29 35 39 36 33 29 28 27 27 30 30 28 26 32 27 27 27 28 26 22 27 25 25 23 25 23 22 21 21 21 21 21 20 20 21 20 19 20 19 17 16 15
34 34 37 38 34 31 27 25 26 26 21 26 25 26 28 33 35 30 30 25 25 20 29 24 20 24 22 21 21 19 19 19 19 19 19 20 20 20 18 17 16 16 16 15
37 33 30 30 30 24 23 19 22 22 25 29 27 28 31 33 32 29 26 21 23 29 24 23 23 23 22 21 19 19 20 19 19 18 17 17 17 17 16 16 15 14 14 14
29 27 23 24 23 25 24 23 23 30 32 29 29 29 28 30 26 27 23 25 28 21 20 22 23 23 21 20 19 18 18 17 16 15 14 14 13 13 13 13 14 13 11 8
27 28 23 25 29 32 33 34 32 33 33 28 28 28 29 25 25 26 25 24 21 22 23 23 23 22 20 19 18 17 16 16 15 14 13 14 14 15 15 16 13 12 10 8
28 28 25 32 29 30 32 32 31 34 31 31 30 27 25 23 23 25 23 23 22 23 23 23 23 21 20 18 16 16 18 19 16 15 15 15 14 15 15 15 13 12 11 8
28 28 31 29 32 30 32 31 32 36 32 29 28 22 21 25 20 20 26 24 24 23 24 24 22 20 18 17 18 18 17 18 17 16 16 14 17 16 15 14 14 13 14 12

GFSNW_sfc_30mbdewp_108.txt.gz
Dewpoint
40 38 38 37 37 39 39 37 28 35 38 29 29 23 19 21 21 23 23 25 25 25 27 28 25 25 26 27 31 31 33 32 27 28 33 35 32 30 28 21 22 28 28 24
39 40 37 36 37 40 38 34 31 36 36 23 21 22 22 22 21 20 22 24 26 26 26 26 26 27 27 27 29 33 34 31 23 24 31 34 32 30 31 34 32 28 25 24
39 39 37 36 37 40 37 34 27 31 33 29 23 20 22 22 22 21 20 21 21 24 23 31 23 22 24 26 31 36 36 32 28 23 25 29 30 33 35 33 29 28 27 27
38 38 37 35 37 40 38 32 29 29 25 27 24 21 22 21 19 17 17 18 17 21 19 21 21 22 23 28 32 34 34 28 30 32 32 33 31 31 33 32 32 26 28 27
37 37 36 35 37 39 36 28 29 25 22 27 22 21 21 21 15 13 14 15 16 20 19 22 19 21 26 28 32 32 33 29 31 30 32 31 28 30 31 31 31 30 29 25
37 36 36 35 37 38 35 32 31 27 26 22 20 19 13 12 16 17 16 18 20 21 21 23 24 26 27 28 28 31 28 29 29 25 30 29 21 27 28 28 31 30 26 28
36 36 35 36 36 37 37 36 31 25 23 23 19 14 13 18 21 17 23 21 20 21 26 28 29 30 29 31 32 33 30 25 29 24 29 15 26 31 30 27 28 29 31 29
36 36 36 36 37 38 37 38 33 29 23 25 23 21 21 21 22 20 24 23 25 28 26 25 25 25 23 27 28 28 29 28 28 25 25 26 25 26 26 27 25 29 29 30
37 37 37 37 38 38 37 38 37 31 25 26 28 23 23 21 21 20 24 26 29 28 28 27 24 23 21 25 26 26 28 28 30 28 20 17 24 25 27 28 21 30 28 27
37 37 39 37 38 39 39 38 38 31 25 28 29 25 24 26 23 22 25 26 27 28 25 24 21 22 25 24 24 24 24 26 22 23 21 22 26 27 28 21 21 30 29 27
38 37 38 38 38 39 39 39 39 33 28 28 33 33 29 29 27 23 26 23 26 26 23 21 22 23 24 27 26 26 24 24 21 21 17 15 29 27 22 28 31 31 30 28
38 38 36 35 38 39 38 36 40 38 29 27 35 33 31 30 31 29 30 29 30 29 24 24 25 22 25 27 22 30 23 25 23 24 22 29 31 29 32 33 31 32 31 28
39 38 37 35 36 38 39 38 37 33 29 28 30 28 32 35 33 33 28 31 33 29 30 28 28 24 26 25 27 27 31 30 24 25 27 28 30 32 32 32 29 26 27 31
39 39 38 36 36 37 37 35 37 34 32 25 28 32 30 32 34 34 34 32 34 32 30 26 26 22 27 26 30 27 28 28 26 26 28 28 28 29 27 25 25 22 22 22
39 38 37 36 36 35 35 35 37 38 34 28 26 30 30 30 32 32 33 33 31 29 26 25 23 27 27 29 30 26 29 28 27 23 30 28 28 29 26 22 22 22 21 21
38 37 38 37 37 36 33 21 38 40 38 29 23 30 29 31 31 30 31 31 31 29 27 25 25 28 27 26 24 29 31 31 31 28 30 28 29 30 28 21 21 21 20 20
38 39 38 37 37 36 33 31 38 42 40 31 26 24 33 33 31 30 30 32 31 28 27 26 26 27 29 28 24 30 31 30 30 30 30 29 29 21 23 21 20 21 21 21
38 38 37 36 37 33 32 38 41 41 35 32 24 23 31 32 27 27 31 29 29 28 26 27 25 27 30 25 29 28 29 30 30 31 25 22 21 21 20 20 19 19 18 18
38 37 38 34 32 28 30 40 40 39 35 27 26 22 23 34 30 31 31 30 24 29 25 25 28 26 23 27 25 24 25 25 24 23 22 21 20 20 21 20 19 18 18 17
38 34 26 24 30 37 39 35 31 32 34 31 25 28 25 31 29 28 27 28 25 24 27 28 25 24 29 29 25 24 24 24 26 24 23 20 19 19 19 19 20 18 16 14
32 29 28 34 37 35 31 27 26 28 25 29 27 27 26 32 26 26 26 25 24 23 28 24 24 22 24 22 20 21 22 21 21 21 21 22 20 19 20 18 17 16 15 14
31 33 37 36 32 30 26 24 25 24 21 25 27 27 28 31 34 28 30 26 24 21 30 24 20 22 22 20 20 20 20 20 20 20 20 20 20 19 18 17 16 15 15 13
35 32 30 29 27 22 21 18 20 23 24 28 26 28 31 32 31 29 27 21 20 28 24 21 21 23 21 20 19 19 19 19 18 18 18 18 17 16 15 14 12 12 12 11
27 26 22 23 22 23 22 21 21 24 26 27 29 29 27 29 25 25 21 22 27 20 18 21 21 23 20 20 20 18 16 15 15 14 14 14 14 14 13 13 12 11 10 8
26 27 20 23 25 28 32 31 31 32 29 29 28 28 26 24 24 24 23 23 19 20 22 22 23 22 20 19 18 16 14 13 13 12 12 12 13 13 14 14 12 11 8 5
27 26 24 28 29 27 32 31 30 31 28 29 28 26 23 22 21 23 20 22 21 23 23 23 21 19 18 16 15 15 14 14 13 13 14 14 13 13 14 14 12 11 10 8
25 25 30 29 28 30 31 31 31 32 28 27 27 22 19 23 20 19 25 23 24 23 22 22 20 18 16 15 14 18 18 15 14 14 15 13 14 15 15 14 13 13 13 11

GFSNW_sfc_30mbdewp_114.txt.gz
Dewpoint
46 45 43 42 41 41 39 36 29 37 40 31 27 20 18 21 22 24 23 24 23 22 22 23 25 22 23 24 25 23 29 31 25 24 27 34 34 30 30 26 23 27 24 19
45 44 42 41 40 40 38 32 33 37 36 24 25 23 22 21 21 20 23 23 25 25 22 18 25 25 26 28 22 30 34 29 23 20 27 33 30 31 30 32 32 25 21 20
44 43 41 40 39 40 37 31 27 32 33 29 23 22 21 20 22 21 21 20 24 22 20 25 21 22 23 23 23 30 35 32 27 21 25 28 26 31 34 32 25 23 22 22
42 41 41 41 40 42 37 32 27 29 27 26 23 23 22 20 18 18 17 21 16 16 16 18 23 24 21 21 29 29 34 28 29 29 29 28 26 28 29 26 26 20 22 21
42 41 40 40 41 42 34 30 27 28 28 26 22 23 21 19 18 13 12 17 17 18 17 18 17 20 21 19 26 24 33 27 30 28 31 30 23 26 25 28 27 25 24 21
40 39 40 41 41 39 32 32 30 27 27 22 19 20 22 21 14 21 18 20 19 19 19 22 23 24 24 22 22 27 30 30 28 25 27 24 17 24 24 24 27 28 21 24
38 38 39 41 40 39 34 32 28 25 24 21 18 21 19 18 16 17 22 21 19 21 27 28 27 28 27 26 26 29 29 30 30 26 26 15 24 27 28 24 25 28 25 25
37 37 38 40 40 40 36 36 28 26 23 22 20 19 21 22 22 21 23 23 23 29 28 25 25 24 23 29 31 34 32 31 27 25 21 24 25 25 25 24 23 27 28 28
38 40 41 42 41 39 37 36 33 29 24 22 24 21 21 19 19 18 22 26 30 28 27 26 22 20 22 23 26 30 30 30 28 25 20 16 22 25 29 29 20 27 26 25
39 40 42 42 41 39 37 36 35 30 27 28 25 21 21 24 21 17 23 26 27 27 22 21 20 20 25 23 23 25 23 26 22 23 20 22 25 29 32 21 20 27 25 24
40 41 42 41 41 39 36 36 36 29 28 28 33 30 27 26 21 9 22 22 25 23 18 19 21 22 24 26 28 27 21 21 20 23 18 16 29 29 22 27 30 28 25 25
40 41 41 41 39 37 35 32 36 33 28 29 33 32 32 27 22 26 28 27 29 27 23 24 24 22 24 25 23 30 22 23 22 22 21 28 30 29 31 30 31 29 26 26
40 41 41 41 40 38 35 33 33 29 27 28 29 30 33 32 31 31 27 30 32 28 28 26 27 21 26 23 25 26 29 29 23 24 26 27 28 29 30 27 27 29 28 27
39 40 41 40 39 38 36 34 35 31 28 27 28 31 29 34 31 31 32 33 33 31 29 26 25 23 27 27 28 25 27 29 26 24 26 27 27 27 26 24 23 22 22 22
38 39 39 39 38 37 37 37 37 37 27 25 25 29 30 33 32 33 33 32 30 28 25 24 22 26 27 30 27 26 30 27 25 23 26 26 26 26 26 23 22 22 21 20
37 37 38 37 35 29 24 22 33 39 34 25 22 28 31 32 33 32 32 32 30 28 26 25 25 27 26 25 22 29 30 30 31 28 29 27 28 23 23 21 21 21 21 20
38 37 37 38 36 36 29 26 34 40 35 25 23 26 32 32 31 31 31 32 30 28 27 25 26 26 29 27 22 29 29 29 29 28 26 25 24 22 22 22 21 20 19 18
37 37 36 37 38 36 36 40 41 36 30 27 22 26 28 32 27 26 30 28 28 27 25 26 25 28 29 23 29 30 29 29 29 25 26 22 21 21 20 19 18 18 17 17
36 35 32 27 28 31 36 40 38 35 28 23 23 23 22 31 29 29 30 28 23 27 24 23 27 26 23 26 30 29 30 26 23 22 21 21 20 19 19 19 18 17 16 16
33 27 21 16 32 36 36 30 27 27 29 28 23 26 26 28 27 28 27 26 24 22 27 27 26 23 25 25 25 24 25 24 23 21 21 21 20 19 18 18 17 16 14 13
28 28 28 33 37 30 28 24 22 25 22 25 24 25 27 31 26 26 25 22 24 22 26 23 22 20 24 23 22 22 24 24 24 24 23 22 20 19 17 16 15 14 13 12
30 32 35 34 28 26 21 21 22 21 20 25 23 25 28 33 30 26 27 25 24 20 29 25 20 20 23 22 22 21 21 21 21 21 20 20 20 18 17 16 15 13 12 9
32 29 28 26 27 19 18 16 19 21 24 25 28 26 29 30 30 27 25 23 20 27 24 21 18 21 21 21 20 19 19 19 19 19 19 18 17 16 14 12 11 11 11 8
25 23 21 20 19 19 19 19 19 22 23 26 28 28 24 27 25 22 21 20 26 20 18 18 20 21 21 21 20 18 17 17 16 16 15 13 12 11 10 10 10 10 10 8
25 22 18 20 24 25 26 25 28 29 26 28 26 25 25 24 22 22 23 22 19 19 17 19 20 21 21 20 19 17 15 13 13 12 11 11 11 11 11 10 10 9 5 3
24 23 22 25 26 28 30 30 29 29 27 28 26 24 21 21 20 20 17 17 17 18 21 21 20 20 19 18 16 14 12 12 12 11 11 11 11 12 12 11 11 10 9 9
22 23 26 26 25 25 30 32 31 30 27 24 24 21 19 21 19 19 21 19 21 21 21 21 19 19 17 15 14 12 12 11 11 11 12 12 12 12 14 13 13 13 13 11

GFSNW_sfc_30mbdewp_117.txt.gz
Dewpoint
44 44 48 47 44 40 37 34 28 40 39 31 31 24 18 22 23 24 24 24 22 20 23 22 23 22 23 26 26 22 28 31 23 22 25 33 31 29 32 25 23 28 23 18
44 46 48 45 42 39 37 32 33 39 37 25 27 24 22 23 21 22 24 24 24 24 22 15 23 24 27 28 22 28 33 28 22 18 26 23 26 29 33 33 31 27 21 20
45 48 45 43 40 39 36 33 28 34 36 32 25 22 21 20 22 21 23 24 25 22 21 25 20 23 24 25 22 30 33 30 26 20 24 28 23 27 31 32 25 21 20 20
48 46 44 41 39 40 37 33 30 30 26 30 25 24 23 21 19 20 18 20 18 16 15 19 21 25 23 21 28 29 33 27 29 30 29 27 26 25 26 24 25 18 21 20
46 44 41 39 42 43 35 31 28 31 26 28 25 24 22 19 16 15 16 19 17 18 16 15 15 19 20 18 24 24 34 27 30 27 31 30 24 25 23 27 25 24 22 21
43 41 40 41 43 39 35 33 31 30 28 26 23 23 22 19 16 21 16 18 19 19 19 21 21 22 23 20 20 23 29 29 27 24 30 27 21 23 24 24 26 26 20 24
41 40 40 42 44 40 34 32 32 28 25 24 22 22 22 18 16 19 22 21 18 21 28 28 28 27 27 26 25 25 29 27 28 25 27 17 25 29 28 23 25 27 25 25
42 41 41 43 43 40 35 34 31 29 23 22 23 21 21 22 23 22 22 23 23 29 27 25 25 25 26 29 28 27 30 30 26 24 22 24 25 25 25 24 23 26 26 27
41 41 42 42 41 38 35 34 34 30 23 21 22 21 21 19 19 19 24 26 30 28 27 26 21 20 22 23 29 33 32 30 27 26 21 17 22 27 30 29 19 26 24 25
39 40 42 42 41 39 35 33 35 31 27 28 23 20 20 22 18 18 22 26 26 26 23 22 21 21 25 22 22 25 23 25 22 22 21 21 25 29 33 21 21 26 24 23
41 42 43 41 40 38 33 33 35 30 29 31 31 29 25 23 18 11 23 23 25 22 18 19 21 22 24 25 27 26 21 21 20 22 20 17 28 30 23 26 29 26 26 24
42 42 41 40 38 36 33 29 34 35 31 31 32 32 31 22 19 28 28 24 28 26 23 24 24 23 24 25 22 28 22 24 22 22 21 28 30 28 30 32 28 28 26 24
41 41 40 39 38 36 32 31 32 31 29 29 30 29 32 32 31 31 28 30 31 29 29 26 27 22 26 23 24 27 28 30 24 25 26 27 28 29 27 28 28 28 25 23
41 41 40 40 38 37 36 34 36 30 30 26 28 31 32 34 32 33 33 33 32 31 29 26 26 23 28 27 27 25 28 29 25 24 26 26 27 27 25 24 24 23 22 21
41 41 40 39 38 37 37 38 38 35 28 26 27 29 32 32 34 33 33 31 29 28 25 25 23 27 28 30 27 24 29 27 25 23 26 26 26 28 26 23 22 21 21 20
40 39 36 34 32 27 26 24 32 38 32 27 24 28 32 33 33 33 32 31 30 29 26 25 26 27 27 25 22 29 30 31 32 28 29 27 27 25 23 21 21 20 18 17
38 38 40 39 39 38 31 25 33 39 33 26 25 29 33 32 31 31 31 31 30 28 27 26 26 27 30 25 21 28 30 30 29 28 27 26 23 21 21 21 20 18 17 16
40 40 39 38 37 36 35 40 39 34 28 27 25 27 30 32 25 27 30 28 28 28 26 27 25 29 27 23 28 27 27 28 28 28 28 24 23 21 20 19 18 17 16 15
35 33 31 30 33 34 36 40 36 34 27 23 23 23 23 31 29 30 29 28 23 28 24 24 27 25 22 27 29 28 28 26 22 21 22 21 20 19 19 18 18 17 16 16
32 28 20 29 34 38 33 28 25 27 27 26 24 26 26 28 27 27 27 27 24 22 27 28 26 24 25 25 28 29 29 24 22 21 20 20 20 20 19 19 18 16 15 14
29 27 27 34 37 30 27 23 22 23 21 24 25 27 28 31 26 26 25 23 25 21 26 23 22 20 24 24 23 24 24 24 24 24 23 22 21 19 17 16 15 14 13 13
29 34 36 32 28 25 21 21 22 21 20 25 24 26 31 32 30 26 26 24 24 20 28 25 20 21 24 23 23 23 23 23 22 22 21 21 20 18 17 16 15 14 13 9
31 28 27 24 24 18 14 15 19 20 24 26 27 26 30 30 30 27 24 22 20 27 23 20 20 21 23 22 21 20 21 21 20 20 19 18 17 17 15 13 12 11 9 8
25 22 20 18 18 19 19 19 20 22 24 27 28 26 26 27 24 23 21 21 25 18 17 17 20 22 22 21 20 19 18 18 18 17 16 14 13 11 11 11 10 10 10 8
23 21 19 21 24 26 26 24 27 28 26 27 26 25 25 23 22 22 23 21 18 18 17 19 20 21 21 20 19 17 16 15 14 13 12 10 10 10 10 9 9 8 5 4
24 24 22 24 25 27 29 28 28 29 27 27 25 22 20 21 20 19 17 17 16 18 20 21 19 21 20 19 17 16 14 14 13 12 11 10 11 11 12 11 10 9 9 8
22 23 25 26 25 26 28 31 29 28 28 24 23 20 18 22 20 19 19 18 20 21 22 21 20 20 19 17 15 13 13 13 12 11 12 12 12 12 13 13 14 12 13 12

GFSNW_sfc_30mbdewp_120.txt.gz
Dewpoint
44 46 45 44 45 46 40 35 30 37 43 30 31 25 19 19 17 21 22 22 22 23 26 19 27 23 20 22 21 25 28 28 22 21 23 23 22 26 32 27 23 27 26 21
43 44 44 45 45 44 38 34 30 37 39 25 26 27 21 23 23 19 21 22 24 26 25 20 26 27 26 25 20 26 31 26 21 17 26 23 23 24 26 30 32 26 24 21
43 43 44 45 45 43 38 33 25 30 33 33 28 27 21 22 27 24 26 25 26 22 22 22 24 27 23 25 20 25 32 27 27 20 23 26 24 24 26 32 28 24 23 22
43 42 42 43 45 42 38 35 29 27 25 28 27 23 20 19 23 25 24 25 21 16 19 20 21 22 21 19 29 29 29 27 29 28 29 30 25 26 27 25 28 25 23 21
50 48 43 43 45 42 38 32 30 28 25 26 29 25 23 17 20 19 19 18 19 17 14 14 15 17 17 15 25 21 32 28 30 28 32 31 25 26 25 26 25 24 22 21
51 48 44 44 43 42 37 37 33 29 26 27 29 26 19 17 19 22 20 18 18 17 16 17 17 18 19 16 16 22 30 29 27 22 30 26 23 25 26 25 24 27 23 24
49 45 44 45 43 40 37 34 31 30 27 29 26 21 20 19 17 18 21 21 18 22 26 25 24 22 20 21 22 22 29 27 27 22 28 20 26 28 25 23 24 25 24 24
46 44 43 44 42 38 35 34 33 32 28 26 24 25 23 21 23 21 21 22 24 27 22 13 21 25 28 29 29 28 27 28 24 23 25 24 26 27 26 25 23 25 26 26
43 43 42 42 41 39 36 36 38 32 29 28 26 24 22 21 19 23 25 30 31 29 17 21 15 14 14 22 28 31 29 30 26 23 22 18 23 27 31 30 22 25 25 26
43 43 43 42 41 40 37 36 38 32 29 29 26 21 20 20 19 18 22 27 27 27 23 19 17 18 22 20 20 25 26 24 22 22 21 22 25 30 32 22 22 25 25 24
43 43 42 42 40 38 37 36 38 34 29 32 29 27 24 22 18 17 24 22 25 23 21 16 20 19 22 24 24 23 18 20 21 22 21 19 28 30 26 27 27 26 25 24
43 43 42 39 36 34 35 34 36 39 30 30 32 32 30 23 20 23 27 25 23 22 20 20 22 22 25 22 21 26 22 24 22 23 22 28 30 29 32 28 27 26 25 24
42 42 41 40 38 34 34 36 34 32 32 27 25 28 32 34 34 34 25 30 30 30 31 27 27 23 24 22 23 25 27 27 25 25 27 28 29 30 32 30 27 26 25 24
41 41 40 39 38 37 34 35 37 31 28 26 28 32 31 35 35 35 33 33 33 32 29 27 27 23 29 26 26 24 27 28 25 25 27 28 29 29 29 28 26 24 23 22
41 41 40 39 38 37 37 38 38 37 30 24 27 31 33 35 34 33 32 30 28 25 24 26 24 27 27 28 26 25 27 26 26 26 28 30 27 29 29 25 23 22 21 20
38 37 36 34 30 31 30 32 34 35 31 28 24 33 33 34 34 32 32 31 29 26 23 25 25 30 28 24 23 28 30 31 31 29 32 30 30 29 25 22 20 19 18 17
40 40 40 40 39 38 33 32 35 37 39 31 24 29 33 33 32 31 31 32 30 26 25 24 23 27 29 25 22 27 30 30 29 28 28 26 25 22 21 20 19 18 16 15
39 38 38 39 38 36 32 36 37 36 33 30 26 29 30 32 25 27 31 27 28 27 25 26 22 28 27 24 27 28 29 28 28 28 30 25 22 21 20 19 18 17 15 14
32 33 36 35 35 33 32 39 36 37 32 26 28 22 23 31 30 31 30 28 24 28 24 21 25 24 23 26 27 26 27 26 26 24 24 23 21 20 19 19 18 17 16 15
31 29 30 31 35 38 35 31 29 29 29 29 26 27 26 26 28 29 28 28 23 22 24 27 23 22 28 29 27 27 28 25 23 22 22 21 20 20 20 20 18 18 17 17
31 33 31 36 38 31 28 26 24 24 24 26 27 25 25 31 26 26 27 25 25 20 25 23 21 21 26 28 29 29 27 24 24 24 24 23 23 21 19 17 16 16 16 16
33 36 35 33 30 26 23 22 23 21 21 26 27 28 30 32 32 27 28 25 26 21 28 24 20 26 26 26 26 27 26 25 24 25 25 24 22 20 17 16 15 15 15 13
33 31 29 24 24 19 17 17 20 22 26 28 29 29 31 31 32 29 23 23 22 28 25 20 23 26 25 26 25 24 24 24 23 23 22 21 19 18 17 17 16 14 11 10
28 24 20 20 20 22 22 21 23 26 29 30 30 29 28 29 27 27 23 25 25 20 19 19 26 26 26 25 24 23 23 23 22 21 20 19 17 16 15 15 14 13 11 11
25 24 21 22 26 28 28 29 28 29 31 30 29 28 27 26 25 25 24 22 18 18 20 26 28 27 26 24 22 22 21 20 20 19 17 15 14 14 13 13 14 14 11 9
26 25 25 27 27 28 29 30 29 31 31 31 28 25 24 24 23 22 21 18 17 24 27 28 26 25 25 23 22 21 20 20 19 17 15 14 14 14 14 14 13 11 11 10
25 25 28 29 28 27 30 31 31 32 32 28 25 22 22 24 21 20 21 22 27 29 26 25 26 25 24 22 21 18 18 18 17 16 15 15 15 15 13 13 14 14 15 15

GFSNW_sfc_30mbdewp_123.txt.gz
Dewpoint
45 45 45 44 45 46 44 38 32 42 43 29 31 28 33 29 23 16 17 16 17 16 24 18 26 21 20 20 21 23 24 27 22 17 21 22 20 23 23 26 21 29 29 23
45 45 45 44 44 45 41 36 31 41 38 28 28 27 30 28 25 21 16 18 23 28 30 25 29 29 21 19 21 25 29 26 21 19 24 24 23 22 23 25 26 25 24 23
44 44 44 44 44 45 40 33 26 31 31 35 27 27 28 26 23 19 21 20 28 26 22 20 25 28 24 22 20 25 31 26 25 21 24 25 24 24 24 27 27 29 25 23
43 43 44 44 45 45 40 35 31 28 25 28 31 28 27 27 24 22 26 28 22 18 19 19 21 25 19 21 21 22 29 27 28 27 26 28 27 27 26 24 27 25 24 23
43 43 43 44 44 45 40 33 29 28 25 26 29 30 28 27 27 22 24 20 24 23 19 19 17 19 19 16 26 27 29 29 31 28 28 28 29 27 27 26 25 24 23 23
42 42 42 43 43 45 39 37 32 27 25 26 27 28 26 25 25 22 23 23 25 22 17 16 16 17 17 15 23 22 30 28 28 22 27 27 26 26 26 24 23 26 24 24
42 42 43 43 44 45 40 37 32 30 27 26 27 26 26 24 22 22 24 22 22 21 24 23 21 19 17 17 16 19 29 28 25 21 27 20 27 27 25 24 23 23 24 24
47 47 47 45 44 45 40 38 34 29 26 26 25 26 26 26 26 26 20 19 21 25 20 11 12 18 20 19 22 25 25 28 24 21 18 26 27 25 24 23 24 25 25 24
47 47 48 49 45 45 39 37 36 30 27 26 26 27 27 28 26 20 25 28 27 22 13 10 10 11 11 17 23 28 27 29 27 21 18 18 27 26 29 27 22 25 26 26
47 47 48 48 45 44 39 38 38 33 32 28 29 29 27 24 22 21 26 28 26 24 14 14 14 13 14 16 21 26 26 25 24 21 19 23 25 28 32 22 24 26 25 26
45 45 44 45 44 41 37 39 42 34 35 34 31 31 27 26 23 21 23 23 22 18 18 16 15 17 20 21 20 21 21 19 20 20 18 17 28 31 26 28 28 27 25 25
42 42 41 40 40 38 38 36 40 37 35 35 34 32 29 25 23 22 25 19 19 18 18 16 16 20 23 18 18 23 19 20 23 24 24 27 31 32 32 31 30 27 25 25
41 41 41 40 39 38 38 38 38 36 34 33 30 31 33 33 29 28 21 23 27 28 33 22 22 19 19 17 20 25 26 26 26 25 25 26 30 32 34 33 31 27 25 25
41 40 40 40 38 38 37 35 36 32 29 26 27 32 33 33 32 31 28 30 31 31 30 27 27 21 29 25 26 27 28 26 25 26 27 28 30 31 32 32 28 24 23 23
41 40 39 39 39 39 38 37 37 35 26 25 29 32 32 31 30 30 30 30 28 26 24 27 23 26 26 28 26 25 26 27 26 28 28 30 28 30 32 30 26 22 21 20
40 38 38 38 37 35 32 36 32 30 30 28 25 32 31 30 30 29 28 28 26 22 21 22 25 30 29 24 26 28 29 30 30 29 32 31 31 31 31 28 23 21 19 18
41 40 39 38 37 36 32 30 33 35 30 29 22 26 31 30 29 28 28 29 28 22 22 21 21 25 27 25 21 27 30 29 31 32 30 28 29 27 26 20 20 19 17 17
39 39 38 36 35 34 30 35 36 37 28 27 23 27 27 30 24 26 28 25 24 25 23 24 20 24 25 23 25 28 28 28 29 29 30 27 27 22 21 20 18 17 15 15
36 36 35 34 33 27 29 36 37 35 30 26 26 22 23 29 27 27 26 24 23 25 23 20 21 24 22 25 25 27 28 28 29 28 27 24 21 20 20 20 18 16 15 15
34 31 32 33 33 36 36 32 33 31 28 28 26 26 25 24 26 27 25 25 21 20 22 23 22 22 27 25 25 26 26 26 26 25 23 22 21 20 21 20 19 18 18 17
33 33 31 32 35 31 29 29 27 26 25 26 27 25 25 28 24 25 26 24 24 21 23 23 21 20 26 27 26 27 26 24 24 24 24 23 22 22 21 19 19 18 18 18
34 32 33 32 30 28 25 24 24 21 22 25 25 25 27 31 29 26 28 23 25 23 26 24 19 28 27 28 28 28 25 25 25 25 25 25 24 23 20 17 17 17 18 18
31 30 30 23 25 23 21 20 21 24 27 31 30 28 29 29 31 29 24 23 24 27 24 20 25 27 27 27 27 27 26 26 26 26 26 24 22 20 18 19 19 17 14 13
30 27 22 23 22 22 23 23 25 29 30 31 30 29 28 29 28 29 23 26 24 21 19 18 27 27 27 27 27 27 27 26 26 25 24 22 21 20 19 18 17 14 12 13
28 25 21 22 27 28 29 29 30 33 33 30 29 28 27 27 26 26 23 22 19 18 19 29 30 28 28 27 27 26 25 25 24 23 21 19 17 17 17 17 16 15 14 13
26 27 26 29 28 28 30 30 31 33 32 31 27 26 27 25 25 23 22 18 17 25 30 28 28 28 28 26 26 25 24 24 23 21 18 17 17 16 16 16 16 14 13 13
26 27 31 31 30 29 31 32 32 35 31 29 23 24 24 24 21 20 21 25 29 28 28 28 28 26 26 26 25 23 23 22 21 20 18 17 18 17 15 14 14 14 15 16

GFSNW_sfc_30mbdewp_126.txt.gz
Dewpoint
44 45 46 45 46 46 44 40 33 42 42 31 32 29 28 30 28 30 27 21 19 20 24 22 23 22 22 19 20 22 22 25 23 21 20 22 20 19 21 20 18 25 26 25
44 44 45 45 45 46 42 37 32 42 38 28 29 27 26 28 28 28 23 21 20 29 29 22 30 27 23 20 20 27 28 25 21 21 21 23 20 22 22 23 24 22 21 23
43 43 44 44 45 45 41 34 28 32 36 35 30 27 28 25 31 27 23 20 21 28 28 26 26 26 26 22 24 25 31 27 26 25 30 29 25 24 24 24 26 26 27 24
40 42 43 44 44 45 41 37 31 30 26 28 32 32 29 25 27 28 27 23 20 25 21 21 19 24 28 25 24 22 25 29 27 27 29 28 26 27 26 23 25 26 26 24
39 41 42 44 44 44 41 33 29 29 25 28 29 31 30 27 26 25 23 21 23 21 18 19 18 21 25 20 21 21 24 28 30 27 27 28 26 28 28 26 25 25 24 24
40 41 42 43 44 42 38 39 34 27 26 26 28 28 27 27 25 29 23 24 23 21 20 20 21 22 24 20 20 24 27 28 28 21 26 25 26 30 27 26 25 25 25 26
40 41 43 43 43 43 40 39 34 30 27 25 28 26 27 26 26 29 26 24 23 25 26 24 23 21 19 19 18 22 26 29 29 22 28 20 27 29 26 23 23 23 24 24
42 41 43 43 43 44 42 40 36 31 28 27 22 25 24 25 26 29 26 25 28 29 24 19 12 12 13 13 16 16 18 28 26 21 18 25 26 25 24 22 24 25 24 24
41 41 42 42 43 43 43 41 40 34 30 26 21 25 23 25 27 32 29 31 32 28 21 15 6 8 12 9 12 11 17 29 26 22 18 12 27 26 28 27 25 25 26 24
41 42 42 42 43 42 42 40 43 37 31 29 27 26 25 28 30 27 27 28 27 27 19 14 9 11 13 11 20 26 27 29 24 23 18 22 26 28 30 23 25 26 26 27
46 46 45 42 42 43 42 40 43 39 33 31 30 28 26 29 30 29 30 25 25 24 20 12 13 15 18 18 22 23 25 22 23 23 20 20 28 29 28 29 27 27 27 28
46 46 46 46 44 43 43 40 42 42 36 37 36 34 32 31 29 28 29 25 23 22 19 18 17 17 22 18 20 24 25 24 28 26 25 28 32 34 32 29 31 29 28 25
45 47 48 48 47 44 44 43 42 41 36 35 34 32 32 32 31 32 26 25 25 22 30 26 25 20 21 21 19 22 26 26 28 25 26 28 31 34 35 34 33 32 30 25
43 43 45 46 45 45 44 42 42 37 33 31 33 36 32 33 32 32 30 30 29 31 33 29 28 26 28 28 28 28 26 25 26 28 27 27 31 32 32 32 34 31 28 24
41 41 42 43 43 41 39 38 37 34 31 30 33 33 32 31 30 32 34 32 32 30 26 26 25 28 27 28 28 26 27 27 25 28 28 27 29 31 33 31 30 28 24 21
40 40 40 40 39 38 37 37 37 36 34 32 29 32 29 30 30 31 31 31 29 26 22 26 29 31 29 24 25 29 30 31 31 29 32 31 31 32 32 30 30 27 22 19
42 41 40 40 38 37 34 34 36 33 33 30 28 31 29 29 29 29 28 28 26 24 23 22 23 26 28 27 23 29 29 30 31 30 29 28 29 28 31 28 22 19 18 18
39 38 37 36 35 36 34 37 37 39 26 25 26 27 27 27 26 26 26 26 25 26 23 23 23 25 27 24 28 28 29 30 30 29 28 27 29 28 23 20 18 17 16 16
40 39 37 35 30 28 32 35 37 37 31 27 26 23 21 30 26 27 25 24 24 25 24 22 21 25 23 27 27 27 27 27 27 30 28 27 23 21 20 19 18 16 16 15
36 33 33 33 31 34 33 35 34 31 28 27 26 26 26 28 27 26 25 25 22 21 24 23 24 28 25 24 28 29 28 28 28 27 24 23 22 21 21 20 19 18 17 18
35 35 30 31 33 34 29 30 28 27 25 30 26 25 24 27 25 26 26 24 24 20 23 21 20 23 26 26 27 28 28 28 28 27 26 24 22 22 22 21 20 19 19 20
34 30 33 32 32 30 26 24 25 21 22 26 26 26 29 31 28 27 27 24 26 25 25 24 20 29 26 28 28 27 26 25 25 25 24 25 24 24 22 20 20 20 20 19
31 32 29 24 27 24 22 20 22 24 30 31 30 29 29 30 33 30 26 23 25 27 25 20 28 28 28 28 28 27 28 27 27 27 27 26 25 23 21 21 21 19 17 15
32 29 22 24 23 24 28 27 28 30 32 31 31 29 28 30 29 30 23 26 26 21 20 21 27 28 29 29 29 29 29 29 28 27 25 23 22 21 21 19 18 15 13 14
28 26 21 24 27 29 30 31 32 33 34 32 30 29 28 27 27 27 23 22 18 19 21 29 30 30 29 29 29 27 26 26 25 24 22 21 20 19 19 18 16 15 14 13
27 28 27 28 27 28 31 33 33 34 34 32 28 26 27 25 25 23 22 18 17 27 28 30 31 30 30 29 28 27 27 26 25 23 20 19 18 18 18 19 18 15 15 13
26 28 32 31 30 29 31 34 34 37 33 28 24 24 23 24 21 20 24 27 27 29 28 30 30 30 29 28 27 25 25 24 23 21 20 19 19 19 18 16 15 15 15 17

GFSNW_sfc_30mbdewp_132.txt.gz
Dewpoint
44 44 45 46 46 46 42 39 29 42 44 34 34 29 29 28 25 27 26 28 28 27 26 23 22 20 21 27 26 25 26 27 23 22 23 25 23 24 24 22 22 24 23 21
42 43 44 45 45 46 41 34 35 42 42 27 29 29 29 28 25 26 26 26 28 28 25 22 24 24 27 25 24 27 27 27 23 16 24 32 32 30 26 27 25 21 17 15
42 42 41 44 45 46 38 34 28 35 38 34 28 26 26 26 28 27 25 26 27 28 26 27 24 28 28 25 27 32 31 29 25 19 25 30 29 31 33 29 22 21 22 24
40 39 41 42 43 45 39 34 28 30 27 30 30 28 25 23 24 26 29 26 26 27 25 24 24 26 28 26 27 24 25 23 26 26 27 27 26 26 29 30 27 24 22 25
41 40 41 43 43 44 40 34 31 31 28 28 30 28 25 25 28 26 25 25 25 26 26 23 21 25 26 25 27 24 25 20 23 20 25 27 25 25 27 29 27 25 25 25
41 40 41 42 43 42 40 38 36 29 28 27 25 24 25 25 27 27 28 26 25 25 27 27 25 24 25 27 25 25 23 22 24 19 22 24 23 27 28 28 28 25 23 25
40 40 40 41 41 41 42 38 35 32 26 26 26 26 26 25 26 27 29 29 26 29 29 27 24 23 22 22 23 26 23 23 25 21 23 15 19 30 31 28 28 27 26 26
41 40 40 39 40 41 40 41 34 31 26 27 26 27 27 27 27 27 27 27 32 30 27 27 27 25 22 23 24 25 25 25 26 21 20 19 24 27 27 28 26 26 25 25
41 41 39 39 40 41 40 40 42 34 27 25 26 27 28 27 27 27 28 30 33 30 28 27 22 19 20 16 18 23 23 24 26 25 19 13 24 28 29 29 24 26 26 25
40 40 39 39 40 40 40 38 41 38 32 30 28 25 25 28 28 27 32 31 29 32 30 25 22 19 18 13 12 14 19 23 21 22 21 20 28 29 30 23 22 27 26 25
39 39 39 39 40 40 40 37 39 38 34 32 29 29 29 31 29 27 31 31 31 32 28 27 24 18 16 16 17 15 17 17 19 22 21 16 31 27 25 27 28 27 27 26
38 39 39 39 40 40 40 34 38 40 36 34 33 33 34 32 31 31 33 30 31 32 28 28 21 16 18 11 13 27 18 20 24 25 22 30 33 32 31 28 27 28 26 26
38 38 39 39 39 40 40 36 36 38 36 34 34 32 35 37 35 37 33 34 30 30 30 26 27 16 17 14 19 31 34 30 27 25 27 29 33 33 32 31 29 29 28 27
37 38 38 38 39 39 39 37 37 37 35 30 31 36 33 35 36 38 37 34 30 27 30 29 25 24 31 24 28 28 28 28 26 26 28 30 31 33 33 31 30 29 28 27
37 37 37 38 38 38 39 39 39 39 33 29 32 37 37 38 37 36 34 34 29 30 29 31 28 27 28 29 29 26 29 27 23 21 28 26 29 32 33 31 30 29 28 27
38 38 37 38 38 38 38 35 39 39 38 34 29 37 35 37 38 34 32 32 33 33 30 27 30 33 29 26 26 30 31 31 30 28 29 28 32 32 30 29 30 31 30 30
39 39 38 38 39 38 35 32 36 39 40 34 29 30 36 37 37 34 34 35 35 34 30 27 29 30 29 27 25 30 31 31 31 31 30 28 30 28 30 30 30 29 27 24
43 42 43 42 41 40 37 39 39 40 36 36 29 29 32 37 33 32 32 31 32 29 26 28 27 29 28 24 30 31 31 31 31 30 29 29 29 30 30 30 28 19 18 17
45 44 44 43 40 37 38 41 40 41 37 31 31 27 26 33 29 29 28 28 23 28 24 23 26 25 24 26 30 30 30 29 29 28 28 28 28 28 28 23 18 18 18 18
43 41 36 32 39 44 42 40 37 36 37 33 26 29 27 28 28 26 27 28 23 22 24 26 24 25 29 30 30 31 30 30 29 27 27 27 26 27 21 19 18 19 19 19
34 35 34 41 42 38 34 31 30 31 30 31 28 28 26 30 24 24 28 23 23 21 23 22 22 26 27 29 30 30 30 30 29 29 29 28 27 22 20 19 19 19 18 17
36 38 39 38 34 29 25 26 26 26 27 28 27 26 27 29 30 26 28 23 26 20 26 21 21 24 29 29 29 29 29 30 29 28 27 24 23 22 21 20 19 19 18 17
31 28 26 24 26 22 18 22 25 27 28 27 27 27 30 30 29 27 24 22 23 27 22 21 23 28 29 29 29 29 29 29 27 26 24 24 23 22 21 20 19 17 15 14
27 22 20 22 22 26 28 26 26 30 29 28 29 28 27 29 24 25 23 25 26 22 19 21 27 28 28 28 29 28 27 28 27 26 24 22 21 19 19 18 17 16 14 11
26 25 21 23 28 30 31 31 31 31 31 29 28 28 27 26 26 27 24 23 21 22 19 27 28 28 28 27 26 25 24 24 23 21 20 19 18 18 16 16 15 14 11 10
29 29 25 28 29 30 31 31 30 30 29 30 29 27 24 24 23 23 19 19 18 22 28 29 28 28 27 26 26 24 22 20 20 19 18 17 17 17 16 15 13 11 11 11
27 27 30 29 30 30 32 33 33 34 27 25 26 23 22 26 23 24 27 23 26 28 29 29 28 27 27 26 25 23 22 20 18 18 17 16 16 16 14 13 11 11 12 12